Time,TemperatureF,DewpointF,PressureIn,WindDirection,WindDirectionDegrees,WindSpeedMPH,WindSpeedGustMPH,Humidity,HourlyPrecipIn,Conditions,Clouds,dailyrainin,SoftwareType,DateUTC
2013-01-09 00:00:00,43.5,21.3,30.08,NE,53,5.8,5.8,41,0.00,,,0.00,WeatherDisplay:10.36,2013-01-09 06:00:00,
2013-01-09 00:05:00,43.5,21.3,30.08,NE,46,7.4,7.4,41,0.00,,,0.00,WeatherDisplay:10.36,2013-01-09 06:05:00,
2013-01-09 00:10:00,43.5,21.9,30.08,NE,55,8.3,8.3,42,0.00,,,0.00,WeatherDisplay:10.36,2013-01-09 06:10:00,
2013-01-09 00:15:00,43.5,22.5,30.11,NE,49,6.3,6.3,43,0.00,,,0.00,WeatherDisplay:10.36,2013-01-09 06:15:00,
2013-01-09 00:20:00,43.5,22.5,30.11,NE,48,6.3,6.3,43,0.00,,,0.00,WeatherDisplay:10.36,2013-01-09 06:20:00,
2013-01-09 00:25:00,43.5,23.0,30.11,NE,46,6.3,6.3,44,0.00,,,0.00,WeatherDisplay:10.36,2013-01-09 06:25:00,
2013-01-09 00:30:00,43.3,22.9,30.11,East,93,5.8,5.8,44,0.00,,,0.00,WeatherDisplay:10.36,2013-01-09 06:30:00,
2013-01-09 00:35:00,43.3,23.4,30.11,NE,47,6.9,6.9,45,0.00,,,0.00,WeatherDisplay:10.36,2013-01-09 06:35:00,
2013-01-09 00:40:00,43.2,23.2,30.11,East,92,6.9,6.9,45,0.00,,,0.00,WeatherDisplay:10.36,2013-01-09 06:40:00,
2013-01-09 00:45:00,43.0,23.6,30.11,NE,48,7.4,7.4,46,0.00,,,0.00,WeatherDisplay:10.36,2013-01-09 06:45:00,
2013-01-09 00:50:00,43.0,24.1,30.11,NE,49,6.3,6.3,47,0.00,,,0.00,WeatherDisplay:10.36,2013-01-09 06:50:00,
2013-01-09 00:55:00,42.8,23.9,30.11,East,96,7.4,7.4,47,0.00,,,0.00,WeatherDisplay:10.36,2013-01-09 06:55:00,
2013-01-09 01:00:00,42.8,24.4,30.11,ENE,63,6.7,6.7,48,0.00,,,0.00,WeatherDisplay:10.36,2013-01-09 07:00:00,
2013-01-09 01:05:00,42.8,24.4,30.11,NE,46,6.9,6.9,48,0.00,,,0.00,WeatherDisplay:10.36,2013-01-09 07:05:00,
2013-01-09 01:10:00,42.6,24.3,30.11,NE,48,6.9,6.9,48,0.00,,,0.00,WeatherDisplay:10.36,2013-01-09 07:10:00,
2013-01-09 01:15:00,42.6,24.8,30.11,SE,131,6.9,6.9,49,0.00,,,0.00,WeatherDisplay:10.36,2013-01-09 07:15:00,
2013-01-09 01:20:00,42.4,24.6,30.11,NE,56,6.3,6.3,49,0.00,,,0.00,WeatherDisplay:10.36,2013-01-09 07:20:00,
2013-01-09 01:25:00,42.4,24.6,30.11,East,100,5.8,5.8,49,0.00,,,0.00,WeatherDisplay:10.36,2013-01-09 07:25:00,
2013-01-09 01:30:00,42.3,24.4,30.14,NE,53,6.9,6.9,49,0.00,,,0.00,WeatherDisplay:10.36,2013-01-09 07:30:00,
2013-01-09 01:35:00,42.1,24.8,30.14,NE,49,6.3,6.3,50,0.00,,,0.00,WeatherDisplay:10.36,2013-01-09 07:35:00,
2013-01-09 01:40:00,42.1,24.8,30.14,NE,46,6.9,6.9,50,0.00,,,0.00,WeatherDisplay:10.36,2013-01-09 07:40:00,
2013-01-09 01:45:00,42.1,24.8,30.14,NE,49,6.9,6.9,50,0.00,,,0.00,WeatherDisplay:10.36,2013-01-09 07:45:00,
2013-01-09 01:50:00,41.9,25.1,30.14,NE,47,6.3,6.3,51,0.00,,,0.00,WeatherDisplay:10.36,2013-01-09 07:50:00,
2013-01-09 01:55:00,41.7,24.9,30.14,NE,47,5.8,5.8,51,0.00,,,0.00,WeatherDisplay:10.36,2013-01-09 07:55:00,
2013-01-09 02:00:00,41.7,25.4,30.14,NE,48,4.9,4.9,52,0.00,,,0.00,WeatherDisplay:10.36,2013-01-09 08:00:00,
2013-01-09 02:05:00,41.5,25.2,30.14,ENE,71,4.0,4.0,52,0.00,,,0.00,WeatherDisplay:10.36,2013-01-09 08:05:00,
2013-01-09 02:10:00,41.5,25.2,30.14,NE,47,4.6,4.9,52,0.00,,,0.00,WeatherDisplay:10.36,2013-01-09 08:10:00,
2013-01-09 02:15:00,41.4,25.5,30.17,NE,47,6.3,6.3,53,0.00,,,0.00,WeatherDisplay:10.36,2013-01-09 08:15:00,
2013-01-09 02:20:00,41.4,25.5,30.17,ENE,59,6.9,6.9,53,0.00,,,0.00,WeatherDisplay:10.36,2013-01-09 08:20:00,
2013-01-09 02:25:00,41.4,25.9,30.17,NE,49,5.8,5.8,54,0.00,,,0.00,WeatherDisplay:10.36,2013-01-09 08:25:00,
2013-01-09 02:30:00,41.4,25.9,30.17,NE,49,5.8,5.8,54,0.00,,,0.00,WeatherDisplay:10.36,2013-01-09 08:30:00,
2013-01-09 02:35:00,41.2,26.2,30.17,NE,48,5.4,5.4,55,0.00,,,0.00,WeatherDisplay:10.36,2013-01-09 08:35:00,
2013-01-09 02:40:00,41.2,26.2,30.17,East,95,7.4,7.4,55,0.00,,,0.00,WeatherDisplay:10.36,2013-01-09 08:40:00,
2013-01-09 02:45:00,41.2,26.2,30.17,NE,50,5.8,5.8,55,0.00,,,0.00,WeatherDisplay:10.36,2013-01-09 08:45:00,
2013-01-09 02:50:00,41.0,26.5,30.17,ENE,60,4.6,4.6,56,0.00,,,0.00,WeatherDisplay:10.36,2013-01-09 08:50:00,
2013-01-09 02:55:00,41.0,26.5,30.17,NE,49,4.6,4.6,56,0.00,,,0.00,WeatherDisplay:10.36,2013-01-09 08:55:00,
2013-01-09 03:00:00,40.8,26.7,30.17,NE,47,6.7,6.7,57,0.00,,,0.00,WeatherDisplay:10.36,2013-01-09 09:00:00,
2013-01-09 03:05:00,40.6,26.6,30.17,NE,48,4.9,4.9,57,0.00,,,0.00,WeatherDisplay:10.36,2013-01-09 09:05:00,
2013-01-09 03:10:00,40.6,26.6,30.17,NE,47,4.6,4.6,57,0.00,,,0.00,WeatherDisplay:10.36,2013-01-09 09:10:00,
2013-01-09 03:15:00,40.5,26.4,30.17,NE,48,4.0,4.0,57,0.00,,,0.00,WeatherDisplay:10.36,2013-01-09 09:15:00,
2013-01-09 03:20:00,40.5,26.8,30.17,NE,51,5.8,5.8,58,0.00,,,0.00,WeatherDisplay:10.36,2013-01-09 09:20:00,
2013-01-09 03:25:00,40.3,26.7,30.17,NE,49,5.8,5.8,58,0.00,,,0.00,WeatherDisplay:10.36,2013-01-09 09:25:00,
2013-01-09 03:30:00,40.3,26.7,30.20,NE,48,4.9,4.9,58,0.00,,,0.00,WeatherDisplay:10.36,2013-01-09 09:30:00,
2013-01-09 03:35:00,40.1,26.9,30.20,ENE,59,4.6,4.6,59,0.00,,,0.00,WeatherDisplay:10.36,2013-01-09 09:35:00,
2013-01-09 03:40:00,39.9,26.7,30.20,NE,55,4.9,4.9,59,0.00,,,0.00,WeatherDisplay:10.36,2013-01-09 09:40:00,
2013-01-09 03:45:00,39.9,27.1,30.20,NE,51,4.5,4.5,60,0.00,,,0.00,WeatherDisplay:10.36,2013-01-09 09:45:00,
2013-01-09 03:50:00,39.9,27.1,30.20,NE,56,4.6,4.6,60,0.00,,,0.00,WeatherDisplay:10.36,2013-01-09 09:50:00,
2013-01-09 03:55:00,39.7,27.0,30.20,NE,48,4.6,4.6,60,0.00,,,0.00,WeatherDisplay:10.36,2013-01-09 09:55:00,
2013-01-09 04:00:00,39.7,27.4,30.20,NE,49,4.9,4.9,61,0.00,,,0.00,WeatherDisplay:10.36,2013-01-09 10:00:00,
2013-01-09 04:05:00,39.7,27.4,30.20,NE,53,4.6,4.6,61,0.00,,,0.00,WeatherDisplay:10.36,2013-01-09 10:05:00,
2013-01-09 04:10:00,39.6,27.2,30.20,NE,47,4.6,4.6,61,0.00,,,0.00,WeatherDisplay:10.36,2013-01-09 10:10:00,
2013-01-09 04:15:00,39.6,27.6,30.20,NE,47,4.0,4.0,62,0.00,,,0.00,WeatherDisplay:10.36,2013-01-09 10:15:00,
2013-01-09 04:20:00,39.6,27.6,30.20,SW,223,4.0,4.0,62,0.00,,,0.00,WeatherDisplay:10.36,2013-01-09 10:20:00,
2013-01-09 04:25:00,39.4,27.4,30.20,ENE,73,5.8,5.8,62,0.00,,,0.00,WeatherDisplay:10.36,2013-01-09 10:25:00,
2013-01-09 04:30:00,39.4,27.8,30.20,NE,51,3.6,0.0,63,0.00,,,0.00,WeatherDisplay:10.36,2013-01-09 10:30:00,
2013-01-09 04:35:00,39.2,27.7,30.20,ENE,59,4.6,4.6,63,0.00,,,0.00,WeatherDisplay:10.36,2013-01-09 10:35:00,
2013-01-09 04:40:00,39.0,27.5,30.20,NE,47,4.6,4.6,63,0.00,,,0.00,WeatherDisplay:10.36,2013-01-09 10:40:00,
2013-01-09 04:45:00,39.0,27.5,30.20,NE,51,4.5,4.5,63,0.00,,,0.00,WeatherDisplay:10.36,2013-01-09 10:45:00,
2013-01-09 04:50:00,38.8,27.3,30.20,NE,51,4.0,4.0,63,0.00,,,0.00,WeatherDisplay:10.36,2013-01-09 10:50:00,
2013-01-09 04:55:00,38.8,27.7,30.20,ESE,106,5.4,5.4,64,0.00,,,0.00,WeatherDisplay:10.36,2013-01-09 10:55:00,
2013-01-09 05:00:00,38.8,27.7,30.20,NE,49,4.9,4.9,64,0.00,,,0.00,WeatherDisplay:10.36,2013-01-09 11:00:00,
2013-01-09 05:05:00,38.7,27.5,30.20,NE,56,4.9,4.9,64,0.00,,,0.00,WeatherDisplay:10.36,2013-01-09 11:05:00,
2013-01-09 05:10:00,38.7,27.5,30.20,ENE,65,4.6,4.6,64,0.00,,,0.00,WeatherDisplay:10.36,2013-01-09 11:10:00,
2013-01-09 05:15:00,39.0,28.2,30.20,NE,51,4.9,4.9,65,0.00,,,0.00,WeatherDisplay:10.36,2013-01-09 11:15:00,
2013-01-09 05:20:00,39.7,29.3,30.23,NE,47,4.9,4.9,66,0.00,,,0.00,WeatherDisplay:10.36,2013-01-09 11:20:00,
2013-01-09 05:25:00,40.3,30.2,30.23,NE,51,4.9,4.9,67,0.00,,,0.00,WeatherDisplay:10.36,2013-01-09 11:25:00,
2013-01-09 05:30:00,40.6,30.5,30.23,ENE,64,4.9,4.9,67,0.00,,,0.00,WeatherDisplay:10.36,2013-01-09 11:30:00,
2013-01-09 05:35:00,40.5,30.4,30.23,SSE,147,4.9,4.9,67,0.00,,,0.00,WeatherDisplay:10.36,2013-01-09 11:35:00,
2013-01-09 05:40:00,40.6,30.9,30.23,East,99,5.8,5.8,68,0.00,,,0.00,WeatherDisplay:10.36,2013-01-09 11:40:00,
2013-01-09 05:45:00,40.6,30.9,30.23,NE,53,4.6,4.6,68,0.00,,,0.00,WeatherDisplay:10.36,2013-01-09 11:45:00,
2013-01-09 05:50:00,40.5,31.1,30.23,NE,47,6.3,6.3,69,0.00,,,0.00,WeatherDisplay:10.36,2013-01-09 11:50:00,
2013-01-09 05:55:00,40.5,31.1,30.23,NE,52,5.8,5.8,69,0.00,,,0.00,WeatherDisplay:10.36,2013-01-09 11:55:00,
2013-01-09 06:00:00,40.3,31.3,30.23,NE,50,5.8,5.8,70,0.00,,,0.00,WeatherDisplay:10.36,2013-01-09 12:00:00,
2013-01-09 06:05:00,40.3,31.3,30.23,NE,52,5.8,5.8,70,0.00,,,0.00,WeatherDisplay:10.36,2013-01-09 12:05:00,
2013-01-09 06:10:00,40.1,31.1,30.23,NE,49,5.8,5.8,70,0.00,,,0.00,WeatherDisplay:10.36,2013-01-09 12:10:00,
2013-01-09 06:15:00,39.9,31.3,30.23,NE,49,4.9,4.9,71,0.00,,,0.00,WeatherDisplay:10.36,2013-01-09 12:15:00,
2013-01-09 06:20:00,39.6,30.6,30.23,NE,51,3.6,3.6,70,0.00,,,0.00,WeatherDisplay:10.36,2013-01-09 12:20:00,
2013-01-09 06:25:00,39.2,30.2,30.23,NE,51,3.5,3.5,70,0.00,,,0.00,WeatherDisplay:10.36,2013-01-09 12:25:00,
2013-01-09 06:30:00,38.8,29.9,30.23,NE,51,2.7,0.0,70,0.00,,,0.00,WeatherDisplay:10.36,2013-01-09 12:30:00,
2013-01-09 06:35:00,38.5,29.2,30.23,NE,50,0.0,0.0,69,0.00,,,0.00,WeatherDisplay:10.36,2013-01-09 12:35:00,
2013-01-09 06:40:00,38.1,28.8,30.23,NE,48,0.0,0.0,69,0.00,,,0.00,WeatherDisplay:10.36,2013-01-09 12:40:00,
2013-01-09 06:45:00,37.9,28.7,30.23,NE,48,0.0,0.0,69,0.00,,,0.00,WeatherDisplay:10.36,2013-01-09 12:45:00,
2013-01-09 06:50:00,37.6,28.3,30.26,NE,47,0.0,0.0,69,0.00,,,0.00,WeatherDisplay:10.36,2013-01-09 12:50:00,
2013-01-09 06:55:00,37.6,28.3,30.26,NE,51,3.6,3.6,69,0.00,,,0.00,WeatherDisplay:10.36,2013-01-09 12:55:00,
2013-01-09 07:00:00,37.4,28.2,30.26,NE,48,4.0,4.0,69,0.00,,,0.00,WeatherDisplay:10.36,2013-01-09 13:00:00,
2013-01-09 07:05:00,37.2,28.0,30.26,NE,48,4.9,4.9,69,0.00,,,0.00,WeatherDisplay:10.36,2013-01-09 13:05:00,
2013-01-09 07:10:00,37.2,28.0,30.26,NE,51,3.5,3.5,69,0.00,,,0.00,WeatherDisplay:10.36,2013-01-09 13:10:00,
2013-01-09 07:15:00,37.0,27.8,30.26,NE,47,4.0,4.0,69,0.00,,,0.00,WeatherDisplay:10.36,2013-01-09 13:15:00,
2013-01-09 07:20:00,37.0,27.8,30.29,NE,46,2.7,0.0,69,0.00,,,0.00,WeatherDisplay:10.36,2013-01-09 13:20:00,
2013-01-09 07:25:00,36.9,27.6,30.29,NE,47,0.0,0.0,69,0.00,,,0.00,WeatherDisplay:10.36,2013-01-09 13:25:00,
2013-01-09 07:30:00,36.9,27.6,30.29,NE,48,0.0,0.0,69,0.00,,,0.00,WeatherDisplay:10.36,2013-01-09 13:30:00,
2013-01-09 07:35:00,36.7,27.5,30.29,NE,47,0.0,0.0,69,0.00,,,0.00,WeatherDisplay:10.36,2013-01-09 13:35:00,
2013-01-09 07:40:00,36.7,27.5,30.29,NE,48,0.0,0.0,69,0.00,,,0.00,WeatherDisplay:10.36,2013-01-09 13:40:00,
2013-01-09 07:45:00,36.5,27.3,30.29,NE,48,3.5,0.0,69,0.00,,,0.00,WeatherDisplay:10.36,2013-01-09 13:45:00,
2013-01-09 07:50:00,36.3,27.1,30.29,NE,46,0.0,0.0,69,0.00,,,0.00,WeatherDisplay:10.36,2013-01-09 13:50:00,
2013-01-09 07:55:00,36.3,27.1,30.29,NE,49,3.5,3.5,69,0.00,,,0.00,WeatherDisplay:10.36,2013-01-09 13:55:00,
2013-01-09 08:00:00,36.3,27.1,30.29,NE,47,0.0,0.0,69,0.00,,,0.00,WeatherDisplay:10.36,2013-01-09 14:00:00,
2013-01-09 08:05:00,36.3,27.1,30.29,NE,49,0.0,0.0,69,0.00,,,0.00,WeatherDisplay:10.36,2013-01-09 14:05:00,
2013-01-09 08:10:00,36.3,27.5,30.29,NE,47,0.0,0.0,70,0.00,,,0.00,WeatherDisplay:10.36,2013-01-09 14:10:00,
2013-01-09 08:15:00,36.3,27.5,30.29,ENE,62,0.0,0.0,70,0.00,,,0.00,WeatherDisplay:10.36,2013-01-09 14:15:00,
2013-01-09 08:20:00,36.5,27.6,30.29,ESE,122,3.6,0.0,70,0.00,,,0.00,WeatherDisplay:10.36,2013-01-09 14:20:00,
2013-01-09 08:25:00,36.7,27.8,30.29,ESE,103,0.0,0.0,70,0.00,,,0.00,WeatherDisplay:10.36,2013-01-09 14:25:00,
2013-01-09 08:30:00,36.9,28.0,30.29,East,83,0.0,0.0,70,0.00,,,0.00,WeatherDisplay:10.36,2013-01-09 14:30:00,
2013-01-09 08:35:00,36.9,28.0,30.32,East,87,0.0,0.0,70,0.00,,,0.00,WeatherDisplay:10.36,2013-01-09 14:35:00,
2013-01-09 08:40:00,37.0,28.5,30.32,East,86,0.0,0.0,71,0.00,,,0.00,WeatherDisplay:10.36,2013-01-09 14:40:00,
2013-01-09 08:45:00,37.4,28.9,30.32,ENE,70,0.0,0.0,71,0.00,,,0.00,WeatherDisplay:10.36,2013-01-09 14:45:00,
2013-01-09 08:50:00,37.9,29.4,30.32,ENE,70,0.0,0.0,71,0.00,,,0.00,WeatherDisplay:10.36,2013-01-09 14:50:00,
2013-01-09 08:55:00,38.3,29.7,30.32,ENE,70,0.0,0.0,71,0.00,,,0.00,WeatherDisplay:10.36,2013-01-09 14:55:00,
2013-01-09 09:00:00,38.8,30.2,30.32,ENE,71,0.0,0.0,71,0.00,,,0.00,WeatherDisplay:10.36,2013-01-09 15:00:00,
2013-01-09 09:05:00,39.4,31.1,30.32,ENE,70,0.0,0.0,72,0.00,,,0.00,WeatherDisplay:10.36,2013-01-09 15:05:00,
2013-01-09 09:10:00,39.9,31.6,30.32,SSE,147,0.0,0.0,72,0.00,,,0.00,WeatherDisplay:10.36,2013-01-09 15:10:00,
2013-01-09 09:15:00,40.5,31.8,30.35,East,83,0.0,0.0,71,0.00,,,0.00,WeatherDisplay:10.36,2013-01-09 15:15:00,
2013-01-09 09:20:00,40.8,32.1,30.35,East,101,0.0,0.0,71,0.00,,,0.00,WeatherDisplay:10.36,2013-01-09 15:20:00,
2013-01-09 09:25:00,41.5,33.2,30.35,NE,50,0.0,0.0,72,0.00,,,0.00,WeatherDisplay:10.36,2013-01-09 15:25:00,
2013-01-09 09:30:00,42.1,33.4,30.35,NE,49,0.0,0.0,71,0.00,,,0.00,WeatherDisplay:10.36,2013-01-09 15:30:00,
2013-01-09 09:35:00,42.6,33.9,30.35,NE,47,0.0,0.0,71,0.00,,,0.00,WeatherDisplay:10.36,2013-01-09 15:35:00,
2013-01-09 09:40:00,43.2,34.0,30.35,NE,47,0.0,0.0,70,0.00,,,0.00,WeatherDisplay:10.36,2013-01-09 15:40:00,
2013-01-09 09:45:00,43.5,34.0,30.35,NE,46,5.8,5.8,69,0.00,,,0.00,WeatherDisplay:10.36,2013-01-09 15:45:00,
2013-01-09 09:50:00,43.9,34.0,30.35,NE,50,2.7,0.0,68,0.00,,,0.00,WeatherDisplay:10.36,2013-01-09 15:50:00,
2013-01-09 09:55:00,44.6,34.3,30.35,NE,45,4.0,4.0,67,0.00,,,0.00,WeatherDisplay:10.36,2013-01-09 15:55:00,
2013-01-09 10:01:00,45.3,34.2,30.35,NE,48,4.6,4.6,65,0.00,,,0.00,WeatherDisplay:10.36,2013-01-09 16:01:00,
2013-01-09 10:06:00,45.9,34.0,30.35,NE,47,4.0,4.0,63,0.00,,,0.00,WeatherDisplay:10.36,2013-01-09 16:06:00,
2013-01-09 10:11:00,46.2,33.5,30.35,NE,44,4.0,4.0,61,0.00,,,0.00,WeatherDisplay:10.36,2013-01-09 16:11:00,
2013-01-09 10:16:00,46.4,32.8,30.38,East,84,3.6,3.6,59,0.00,,,0.00,WeatherDisplay:10.36,2013-01-09 16:16:00,
2013-01-09 10:21:00,46.8,32.8,30.38,NE,46,4.9,4.9,58,0.00,,,0.00,WeatherDisplay:10.36,2013-01-09 16:21:00,
2013-01-09 10:26:00,47.1,32.2,30.38,NE,48,5.8,5.8,56,0.00,,,0.00,WeatherDisplay:10.36,2013-01-09 16:26:00,
2013-01-09 10:31:00,47.5,31.6,30.38,NE,49,4.6,4.6,54,0.00,,,0.00,WeatherDisplay:10.36,2013-01-09 16:31:00,
2013-01-09 10:36:00,47.8,31.5,30.38,NE,47,4.6,4.6,53,0.00,,,0.00,WeatherDisplay:10.36,2013-01-09 16:36:00,
2013-01-09 10:41:00,48.0,31.2,30.38,NE,47,4.6,4.6,52,0.00,,,0.00,WeatherDisplay:10.36,2013-01-09 16:41:00,
2013-01-09 10:46:00,48.4,31.1,30.38,NE,47,0.0,0.0,51,0.00,,,0.00,WeatherDisplay:10.36,2013-01-09 16:46:00,
2013-01-09 10:51:00,48.6,30.7,30.38,NE,47,4.6,4.6,50,0.00,,,0.00,WeatherDisplay:10.36,2013-01-09 16:51:00,
2013-01-09 10:56:00,48.7,30.4,30.38,NE,46,2.7,3.1,49,0.00,,,0.00,WeatherDisplay:10.36,2013-01-09 16:56:00,
2013-01-09 11:01:00,48.9,30.6,30.38,NE,44,3.5,0.0,49,0.00,,,0.00,WeatherDisplay:10.36,2013-01-09 17:01:00,
2013-01-09 11:06:00,49.1,30.2,30.38,NE,46,4.9,4.9,48,0.00,,,0.00,WeatherDisplay:10.36,2013-01-09 17:06:00,
2013-01-09 11:11:00,49.6,30.2,30.38,NE,46,4.6,4.6,47,0.00,,,0.00,WeatherDisplay:10.36,2013-01-09 17:11:00,
2013-01-09 11:16:00,50.0,30.5,30.35,NE,47,4.6,4.6,47,0.00,,,0.00,WeatherDisplay:10.36,2013-01-09 17:16:00,
2013-01-09 11:21:00,50.2,30.2,30.35,NE,47,3.6,3.6,46,0.00,,,0.00,WeatherDisplay:10.36,2013-01-09 17:21:00,
2013-01-09 11:26:00,50.7,30.7,30.35,NE,45,4.9,4.9,46,0.00,,,0.00,WeatherDisplay:10.36,2013-01-09 17:26:00,
2013-01-09 11:31:00,50.9,30.3,30.35,NE,55,5.8,5.8,45,0.00,,,0.00,WeatherDisplay:10.36,2013-01-09 17:31:00,
2013-01-09 11:36:00,51.3,30.1,30.35,NE,45,3.6,3.6,44,0.00,,,0.00,WeatherDisplay:10.36,2013-01-09 17:36:00,
2013-01-09 11:41:00,51.3,28.3,30.35,NNW,342,5.8,5.8,41,0.00,,,0.00,WeatherDisplay:10.36,2013-01-09 17:41:00,
2013-01-09 11:46:00,51.1,28.2,30.85,North,351,0.0,0.0,41,0.00,,,0.00,WeatherDisplay:10.36,2013-01-09 17:46:00,
2013-01-09 11:51:00,50.9,28.0,30.85,NNE,28,4.6,4.6,41,0.00,,,0.00,WeatherDisplay:10.36,2013-01-09 17:51:00,
2013-01-09 11:56:00,50.9,28.6,30.85,North,351,6.7,6.7,42,0.00,,,0.00,WeatherDisplay:10.36,2013-01-09 17:56:00,
2013-01-09 12:01:00,50.7,28.4,30.35,North,351,6.9,6.9,42,0.00,,,0.00,WeatherDisplay:10.36,2013-01-09 18:01:00,
2013-01-09 12:06:00,50.7,28.4,30.35,NNE,27,4.6,4.6,42,0.00,,,0.00,WeatherDisplay:10.36,2013-01-09 18:06:00,
2013-01-09 12:11:00,50.7,28.4,30.35,NNE,28,3.5,4.5,42,0.00,,,0.00,WeatherDisplay:10.36,2013-01-09 18:11:00,
2013-01-09 12:16:00,50.9,28.0,30.35,NNE,27,6.9,6.9,41,0.00,,,0.00,WeatherDisplay:10.36,2013-01-09 18:16:00,
2013-01-09 12:21:00,50.9,28.0,30.35,SE,143,6.9,6.9,41,0.00,,,0.00,WeatherDisplay:10.36,2013-01-09 18:21:00,
2013-01-09 12:26:00,50.7,27.2,30.35,NE,48,4.9,4.9,40,0.00,,,0.00,WeatherDisplay:10.36,2013-01-09 18:26:00,
2013-01-09 12:31:00,50.5,27.1,31.21,NE,44,6.7,6.7,40,0.00,,,0.00,WeatherDisplay:10.36,2013-01-09 18:31:00,
2013-01-09 12:36:00,50.5,27.7,31.21,NE,44,4.9,4.9,41,0.00,,,0.00,WeatherDisplay:10.36,2013-01-09 18:36:00,
2013-01-09 12:41:00,50.7,27.8,31.21,NE,49,4.9,4.9,41,0.00,,,0.00,WeatherDisplay:10.36,2013-01-09 18:41:00,
2013-01-09 12:42:00,50.7,27.8,31.21,NE,45,6.3,6.3,41,0.00,,,0.00,WeatherDisplay:10.36,2013-01-09 18:42:00,
2013-01-09 12:44:00,50.9,28.0,31.21,NE,45,4.6,4.6,41,0.00,,,0.00,WeatherDisplay:10.36,2013-01-09 18:44:00,
2013-01-09 12:45:00,50.9,28.0,30.35,NE,44,3.5,3.5,41,0.00,,,0.00,WeatherDisplay:10.36,2013-01-09 18:45:00,
2013-01-09 12:46:00,50.9,28.0,30.35,NE,44,3.5,3.5,41,0.00,,,0.00,WeatherDisplay:10.36,2013-01-09 18:46:00,
2013-01-09 12:48:00,51.1,28.2,30.35,NNE,25,6.9,6.9,41,0.00,,,0.00,WeatherDisplay:10.36,2013-01-09 18:48:00,
2013-01-09 12:49:00,51.1,28.2,30.35,West,266,5.8,5.8,41,0.00,,,0.00,WeatherDisplay:10.36,2013-01-09 18:49:00,
2013-01-09 12:50:00,51.1,28.2,30.35,NE,44,4.6,4.6,41,0.00,,,0.00,WeatherDisplay:10.36,2013-01-09 18:50:00,
2013-01-09 12:55:00,51.1,27.6,30.35,North,351,5.8,5.8,40,0.00,,,0.00,WeatherDisplay:10.36,2013-01-09 18:55:00,
2013-01-09 13:00:00,51.1,28.2,30.35,ENE,57,4.6,0.0,41,0.00,,,0.00,WeatherDisplay:10.36,2013-01-09 19:00:00,
2013-01-09 13:05:00,51.1,28.2,31.12,NNE,26,4.9,0.0,41,0.00,,,0.00,WeatherDisplay:10.36,2013-01-09 19:05:00,
2013-01-09 13:10:00,51.3,28.3,31.12,NE,43,4.6,4.6,41,0.00,,,0.00,WeatherDisplay:10.36,2013-01-09 19:10:00,
2013-01-09 13:15:00,51.3,28.3,31.12,NE,45,4.6,4.6,41,0.00,,,0.00,WeatherDisplay:10.36,2013-01-09 19:15:00,
2013-01-09 13:20:00,51.6,28.7,30.35,West,266,8.3,8.3,41,0.00,,,0.00,WeatherDisplay:10.36,2013-01-09 19:20:00,
2013-01-09 13:25:00,51.6,28.1,30.35,NE,43,5.8,5.8,40,0.00,,,0.00,WeatherDisplay:10.36,2013-01-09 19:25:00,
2013-01-09 13:30:00,51.6,27.4,30.35,North,351,6.7,0.0,39,0.00,,,0.00,WeatherDisplay:10.36,2013-01-09 19:30:00,
2013-01-09 13:35:00,51.4,27.3,30.35,NE,42,6.9,6.9,39,0.00,,,0.00,WeatherDisplay:10.36,2013-01-09 19:35:00,
2013-01-09 13:40:00,51.4,27.9,30.35,NE,46,6.3,6.3,40,0.00,,,0.00,WeatherDisplay:10.36,2013-01-09 19:40:00,
2013-01-09 13:45:00,51.8,28.2,30.35,North,351,4.6,4.6,40,0.00,,,0.00,WeatherDisplay:10.36,2013-01-09 19:45:00,
2013-01-09 13:50:00,51.8,27.6,31.12,NE,44,4.9,4.9,39,0.00,,,0.00,WeatherDisplay:10.36,2013-01-09 19:50:00,
2013-01-09 13:55:00,51.8,27.6,31.12,NE,40,7.4,7.4,39,0.00,,,0.00,WeatherDisplay:10.36,2013-01-09 19:55:00,
2013-01-09 14:00:00,51.8,27.6,30.35,NE,45,3.5,0.0,39,0.00,,,0.00,WeatherDisplay:10.36,2013-01-09 20:00:00,
2013-01-09 14:06:00,51.8,27.6,30.35,NE,43,0.0,0.0,39,0.00,,,0.00,WeatherDisplay:10.36,2013-01-09 20:06:00,
2013-01-09 14:11:00,51.8,27.6,30.35,NNE,27,4.5,4.5,39,0.00,,,0.00,WeatherDisplay:10.36,2013-01-09 20:11:00,
2013-01-09 14:17:00,51.6,27.4,31.15,North,351,4.0,4.0,39,0.00,,,0.00,WeatherDisplay:10.36,2013-01-09 20:17:00,
2013-01-09 14:22:00,51.4,27.3,31.15,North,351,6.7,6.7,39,0.00,,,0.00,WeatherDisplay:10.36,2013-01-09 20:22:00,
2013-01-09 14:28:00,51.3,27.1,31.15,North,351,4.6,4.6,39,0.00,,,0.00,WeatherDisplay:10.36,2013-01-09 20:28:00,
2013-01-09 14:33:00,51.3,27.1,31.15,North,351,0.0,3.6,39,0.00,,,0.00,WeatherDisplay:10.36,2013-01-09 20:33:00,
2013-01-09 14:38:00,51.3,27.1,31.15,NE,44,0.0,0.0,39,0.00,,,0.00,WeatherDisplay:10.36,2013-01-09 20:38:00,
2013-01-09 14:43:00,51.3,26.5,31.15,NE,45,0.0,3.6,38,0.00,,,0.00,WeatherDisplay:10.36,2013-01-09 20:43:00,
2013-01-09 14:48:00,51.3,26.5,30.35,NE,44,0.0,0.0,38,0.00,,,0.00,WeatherDisplay:10.36,2013-01-09 20:48:00,
2013-01-09 14:53:00,51.1,25.7,30.35,North,351,5.8,5.8,37,0.00,,,0.00,WeatherDisplay:10.36,2013-01-09 20:53:00,
2013-01-09 14:58:00,50.9,25.5,30.35,West,264,5.4,0.0,37,0.00,,,0.00,WeatherDisplay:10.36,2013-01-09 20:58:00,
2013-01-09 15:03:00,50.9,25.5,31.15,NE,44,5.4,5.4,37,0.00,,,0.00,WeatherDisplay:10.36,2013-01-09 21:03:00,
2013-01-09 15:08:00,50.7,26.0,31.15,NE,43,4.0,4.0,38,0.00,,,0.00,WeatherDisplay:10.36,2013-01-09 21:08:00,
2013-01-09 15:13:00,50.5,25.8,31.15,ENE,77,0.0,0.0,38,0.00,,,0.00,WeatherDisplay:10.36,2013-01-09 21:13:00,
2013-01-09 15:18:00,50.5,25.8,30.35,West,263,0.0,4.0,38,0.00,,,0.00,WeatherDisplay:10.36,2013-01-09 21:18:00,
2013-01-09 15:23:00,50.4,25.7,30.35,NE,44,2.7,3.1,38,0.00,,,0.00,WeatherDisplay:10.36,2013-01-09 21:23:00,
2013-01-09 15:28:00,50.2,25.5,30.35,NE,45,4.0,4.5,38,0.00,,,0.00,WeatherDisplay:10.36,2013-01-09 21:28:00,
2013-01-09 15:33:00,50.2,25.5,30.38,NE,44,0.0,0.0,38,0.00,,,0.00,WeatherDisplay:10.36,2013-01-09 21:33:00,
2013-01-09 15:38:00,50.2,25.5,30.38,NE,46,4.0,4.0,38,0.00,,,0.00,WeatherDisplay:10.36,2013-01-09 21:38:00,
2013-01-09 15:43:00,50.2,25.5,30.38,NE,44,3.6,3.6,38,0.00,,,0.00,WeatherDisplay:10.36,2013-01-09 21:43:00,
2013-01-09 15:48:00,50.0,25.4,30.38,NE,46,3.6,3.6,38,0.00,,,0.00,WeatherDisplay:10.36,2013-01-09 21:48:00,
2013-01-09 15:53:00,49.8,25.2,30.38,NE,47,0.0,0.0,38,0.00,,,0.00,WeatherDisplay:10.36,2013-01-09 21:53:00,
2013-01-09 15:58:00,49.6,25.7,30.38,NE,44,0.0,0.0,39,0.00,,,0.00,WeatherDisplay:10.36,2013-01-09 21:58:00,
2013-01-09 16:03:00,49.6,25.7,30.38,NE,45,3.1,0.0,39,0.00,,,0.00,WeatherDisplay:10.36,2013-01-09 22:03:00,
2013-01-09 16:08:00,49.3,25.3,30.38,NE,48,0.0,0.0,39,0.00,,,0.00,WeatherDisplay:10.36,2013-01-09 22:08:00,
2013-01-09 16:13:00,49.3,25.3,30.38,NE,45,0.0,0.0,39,0.00,,,0.00,WeatherDisplay:10.36,2013-01-09 22:13:00,
2013-01-09 16:18:00,49.1,25.8,30.38,NE,45,0.0,0.0,40,0.00,,,0.00,WeatherDisplay:10.36,2013-01-09 22:18:00,
2013-01-09 16:23:00,48.7,25.5,30.38,NE,45,0.0,0.0,40,0.00,,,0.00,WeatherDisplay:10.36,2013-01-09 22:23:00,
2013-01-09 16:28:00,48.7,25.5,30.38,NE,46,0.0,0.0,40,0.00,,,0.00,WeatherDisplay:10.36,2013-01-09 22:28:00,
2013-01-09 16:33:00,48.4,25.1,30.38,NE,44,0.0,0.0,40,0.00,,,0.00,WeatherDisplay:10.36,2013-01-09 22:33:00,
2013-01-09 16:38:00,48.0,25.4,30.38,NE,45,0.0,0.0,41,0.00,,,0.00,WeatherDisplay:10.36,2013-01-09 22:38:00,
2013-01-09 16:43:00,47.7,25.1,30.38,NE,45,0.0,0.0,41,0.00,,,0.00,WeatherDisplay:10.36,2013-01-09 22:43:00,
2013-01-09 16:48:00,47.5,24.9,30.38,NE,45,0.0,0.0,41,0.00,,,0.00,WeatherDisplay:10.36,2013-01-09 22:48:00,
2013-01-09 16:53:00,47.3,25.3,30.38,NE,45,0.0,0.0,42,0.00,,,0.00,WeatherDisplay:10.36,2013-01-09 22:53:00,
2013-01-09 16:58:00,46.9,25.0,30.38,NE,46,0.0,0.0,42,0.00,,,0.00,WeatherDisplay:10.36,2013-01-09 22:58:00,
2013-01-09 17:03:00,46.6,24.7,30.38,NE,45,0.0,0.0,42,0.00,,,0.00,WeatherDisplay:10.36,2013-01-09 23:03:00,
2013-01-09 17:08:00,46.2,24.4,30.38,NE,46,0.0,0.0,42,0.00,,,0.00,WeatherDisplay:10.36,2013-01-09 23:08:00,
2013-01-09 17:13:00,46.0,24.8,30.38,NE,45,0.0,0.0,43,0.00,,,0.00,WeatherDisplay:10.36,2013-01-09 23:13:00,
2013-01-09 17:18:00,45.7,24.4,30.38,NE,46,0.0,0.0,43,0.00,,,0.00,WeatherDisplay:10.36,2013-01-09 23:18:00,
2013-01-09 17:23:00,45.3,24.7,30.38,NE,46,0.0,0.0,44,0.00,,,0.00,WeatherDisplay:10.36,2013-01-09 23:23:00,
2013-01-09 17:28:00,45.1,24.5,30.38,NE,46,0.0,0.0,44,0.00,,,0.00,WeatherDisplay:10.36,2013-01-09 23:28:00,
2013-01-09 17:33:00,45.0,24.9,30.38,NE,46,0.0,0.0,45,0.00,,,0.00,WeatherDisplay:10.36,2013-01-09 23:33:00,
2013-01-09 17:38:00,44.8,25.2,30.38,NE,47,0.0,0.0,46,0.00,,,0.00,WeatherDisplay:10.36,2013-01-09 23:38:00,
2013-01-09 17:43:00,44.6,25.1,30.38,NE,46,0.0,0.0,46,0.00,,,0.00,WeatherDisplay:10.36,2013-01-09 23:43:00,
2013-01-09 17:48:00,44.4,24.9,30.38,NE,47,0.0,0.0,46,0.00,,,0.00,WeatherDisplay:10.36,2013-01-09 23:48:00,
2013-01-09 17:53:00,44.2,25.3,30.38,NE,47,0.0,0.0,47,0.00,,,0.00,WeatherDisplay:10.36,2013-01-09 23:53:00,
2013-01-09 17:58:00,44.2,25.3,30.38,NE,47,0.0,0.0,47,0.00,,,0.00,WeatherDisplay:10.36,2013-01-09 23:58:00,
2013-01-09 18:03:00,44.1,25.1,30.38,NE,46,0.0,0.0,47,0.00,,,0.00,WeatherDisplay:10.36,2013-01-10 00:03:00,
2013-01-09 18:08:00,44.1,25.1,30.38,NE,46,0.0,0.0,47,0.00,,,0.00,WeatherDisplay:10.36,2013-01-10 00:08:00,
2013-01-09 18:13:00,44.1,25.1,30.38,NE,47,0.0,0.0,47,0.00,,,0.00,WeatherDisplay:10.36,2013-01-10 00:13:00,
2013-01-09 18:18:00,43.9,24.9,30.38,NNE,28,0.0,0.0,47,0.00,,,0.00,WeatherDisplay:10.36,2013-01-10 00:18:00,
2013-01-09 18:23:00,43.9,25.4,30.38,NNE,28,0.0,0.0,48,0.00,,,0.00,WeatherDisplay:10.36,2013-01-10 00:23:00,
2013-01-09 18:28:00,43.7,25.3,30.38,NNE,26,3.1,3.1,48,0.00,,,0.00,WeatherDisplay:10.36,2013-01-10 00:28:00,
2013-01-09 18:33:00,43.9,25.4,30.38,NNE,26,3.6,3.6,48,0.00,,,0.00,WeatherDisplay:10.36,2013-01-10 00:33:00,
2013-01-09 18:38:00,43.9,25.4,30.38,NNE,26,0.0,0.0,48,0.00,,,0.00,WeatherDisplay:10.36,2013-01-10 00:38:00,
2013-01-09 18:43:00,43.9,25.4,30.38,NNE,26,0.0,0.0,48,0.00,,,0.00,WeatherDisplay:10.36,2013-01-10 00:43:00,
2013-01-09 18:48:00,43.7,25.3,30.41,NNE,26,0.0,0.0,48,0.00,,,0.00,WeatherDisplay:10.36,2013-01-10 00:48:00,
2013-01-09 18:53:00,43.7,25.8,30.41,NNE,26,0.0,0.0,49,0.00,,,0.00,WeatherDisplay:10.36,2013-01-10 00:53:00,
2013-01-09 18:58:00,43.3,25.4,30.41,NNE,25,0.0,0.0,49,0.00,,,0.00,WeatherDisplay:10.36,2013-01-10 00:58:00,
2013-01-09 19:03:00,43.3,25.9,30.41,NNE,26,0.0,0.0,50,0.00,,,0.00,WeatherDisplay:10.36,2013-01-10 01:03:00,
2013-01-09 19:08:00,43.5,26.1,30.41,NNE,26,0.0,0.0,50,0.00,,,0.00,WeatherDisplay:10.36,2013-01-10 01:08:00,
2013-01-09 19:13:00,43.5,26.1,30.41,NNE,25,0.0,0.0,50,0.00,,,0.00,WeatherDisplay:10.36,2013-01-10 01:13:00,
2013-01-09 19:18:00,43.5,26.1,30.41,NNE,26,0.0,0.0,50,0.00,,,0.00,WeatherDisplay:10.36,2013-01-10 01:18:00,
2013-01-09 19:23:00,43.5,26.1,30.41,NNE,26,3.6,0.0,50,0.00,,,0.00,WeatherDisplay:10.36,2013-01-10 01:23:00,
2013-01-09 19:28:00,43.3,25.9,30.41,NNE,26,0.0,0.0,50,0.00,,,0.00,WeatherDisplay:10.36,2013-01-10 01:28:00,
2013-01-09 19:33:00,43.2,25.8,30.41,NNE,26,0.0,0.0,50,0.00,,,0.00,WeatherDisplay:10.36,2013-01-10 01:33:00,
2013-01-09 19:38:00,43.0,25.6,30.41,NNE,26,0.0,0.0,50,0.00,,,0.00,WeatherDisplay:10.36,2013-01-10 01:38:00,
2013-01-09 19:43:00,42.8,25.4,30.41,NNE,26,0.0,0.0,50,0.00,,,0.00,WeatherDisplay:10.36,2013-01-10 01:43:00,
2013-01-09 19:48:00,42.6,25.3,30.41,NNE,26,0.0,0.0,50,0.00,,,0.00,WeatherDisplay:10.36,2013-01-10 01:48:00,
2013-01-09 19:53:00,42.6,25.3,30.41,NNE,26,0.0,0.0,50,0.00,,,0.00,WeatherDisplay:10.36,2013-01-10 01:53:00,
2013-01-09 19:58:00,42.3,24.9,30.41,NNE,26,0.0,0.0,50,0.00,,,0.00,WeatherDisplay:10.36,2013-01-10 01:58:00,
2013-01-09 20:03:00,42.3,24.9,30.41,NNE,26,0.0,0.0,50,0.00,,,0.00,WeatherDisplay:10.36,2013-01-10 02:03:00,
2013-01-09 20:08:00,42.3,24.9,30.41,NNE,26,0.0,0.0,50,0.00,,,0.00,WeatherDisplay:10.36,2013-01-10 02:08:00,
2013-01-09 20:13:00,42.1,24.8,30.41,NNE,26,0.0,0.0,50,0.00,,,0.00,WeatherDisplay:10.36,2013-01-10 02:13:00,
2013-01-09 20:18:00,41.7,24.4,30.41,NNE,29,0.0,0.0,50,0.00,,,0.00,WeatherDisplay:10.36,2013-01-10 02:18:00,
2013-01-09 20:23:00,41.7,24.4,30.41,NNE,28,3.6,3.6,50,0.00,,,0.00,WeatherDisplay:10.36,2013-01-10 02:23:00,
2013-01-09 20:28:00,41.7,24.4,30.41,NNE,30,0.0,0.0,50,0.00,,,0.00,WeatherDisplay:10.36,2013-01-10 02:28:00,
2013-01-09 20:33:00,41.7,24.4,30.41,NNE,27,3.6,0.0,50,0.00,,,0.00,WeatherDisplay:10.36,2013-01-10 02:33:00,
2013-01-09 20:38:00,41.5,24.3,30.41,NNE,26,4.0,0.0,50,0.00,,,0.00,WeatherDisplay:10.36,2013-01-10 02:38:00,
2013-01-09 20:43:00,41.4,24.6,30.41,NNE,25,0.0,4.0,51,0.00,,,0.00,WeatherDisplay:10.36,2013-01-10 02:43:00,
2013-01-09 20:48:00,41.2,24.4,30.41,NNE,29,3.6,3.6,51,0.00,,,0.00,WeatherDisplay:10.36,2013-01-10 02:48:00,
2013-01-09 20:53:00,41.0,24.2,30.41,NNE,26,0.0,0.0,51,0.00,,,0.00,WeatherDisplay:10.36,2013-01-10 02:53:00,
2013-01-09 20:58:00,41.0,24.7,30.41,NNE,26,4.0,4.0,52,0.00,,,0.00,WeatherDisplay:10.36,2013-01-10 02:58:00,
2013-01-09 21:03:00,41.0,24.7,30.41,NNE,25,0.0,3.6,52,0.00,,,0.00,WeatherDisplay:10.36,2013-01-10 03:03:00,
2013-01-09 21:08:00,40.8,25.0,30.41,NNE,28,4.0,4.0,53,0.00,,,0.00,WeatherDisplay:10.36,2013-01-10 03:08:00,
2013-01-09 21:13:00,40.6,24.8,30.41,NNE,27,0.0,0.0,53,0.00,,,0.00,WeatherDisplay:10.36,2013-01-10 03:13:00,
2013-01-09 21:18:00,40.3,24.9,30.41,NNE,31,4.9,4.9,54,0.00,,,0.00,WeatherDisplay:10.36,2013-01-10 03:18:00,
2013-01-09 21:23:00,40.1,24.8,30.41,NNE,26,5.8,5.8,54,0.00,,,0.00,WeatherDisplay:10.36,2013-01-10 03:23:00,
2013-01-09 21:28:00,39.9,25.0,30.41,NNE,26,3.6,4.0,55,0.00,,,0.00,WeatherDisplay:10.36,2013-01-10 03:28:00,
2013-01-09 21:33:00,39.4,25.4,30.41,SSE,166,5.8,5.8,57,0.00,,,0.00,WeatherDisplay:10.36,2013-01-10 03:33:00,
2013-01-09 21:38:00,39.2,26.1,30.41,WSW,237,5.8,5.8,59,0.00,,,0.00,WeatherDisplay:10.36,2013-01-10 03:38:00,
2013-01-09 21:43:00,38.8,26.1,30.41,NNE,26,5.4,5.4,60,0.00,,,0.00,WeatherDisplay:10.36,2013-01-10 03:43:00,
2013-01-09 21:48:00,38.7,25.6,30.41,WNW,301,0.0,3.1,59,0.00,,,0.00,WeatherDisplay:10.36,2013-01-10 03:48:00,
2013-01-09 21:53:00,38.5,25.4,30.41,NNE,25,3.1,0.0,59,0.00,,,0.00,WeatherDisplay:10.36,2013-01-10 03:53:00,
2013-01-09 21:58:00,38.3,25.6,30.41,NNE,26,3.5,3.5,60,0.00,,,0.00,WeatherDisplay:10.36,2013-01-10 03:58:00,
2013-01-09 22:03:00,38.1,25.4,30.41,North,351,4.0,4.0,60,0.00,,,0.00,WeatherDisplay:10.36,2013-01-10 04:03:00,
2013-01-09 22:08:00,37.9,25.7,30.41,North,351,3.5,3.5,61,0.00,,,0.00,WeatherDisplay:10.36,2013-01-10 04:08:00,
2013-01-09 22:13:00,37.9,25.7,30.41,North,351,0.0,0.0,61,0.00,,,0.00,WeatherDisplay:10.36,2013-01-10 04:13:00,
2013-01-09 22:18:00,37.6,25.7,31.21,North,351,0.0,0.0,62,0.00,,,0.00,WeatherDisplay:10.36,2013-01-10 04:18:00,
2013-01-09 22:23:00,37.6,25.7,31.21,NNW,333,0.0,0.0,62,0.00,,,0.00,WeatherDisplay:10.36,2013-01-10 04:23:00,
2013-01-09 22:28:00,37.6,26.1,31.21,SW,229,2.7,0.0,63,0.00,,,0.00,WeatherDisplay:10.36,2013-01-10 04:28:00,
2013-01-09 22:33:00,37.6,26.1,31.18,North,351,0.0,0.0,63,0.00,,,0.00,WeatherDisplay:10.36,2013-01-10 04:33:00,
2013-01-09 22:38:00,37.6,26.1,31.18,North,351,0.0,0.0,63,0.00,,,0.00,WeatherDisplay:10.36,2013-01-10 04:38:00,
2013-01-09 22:43:00,37.4,25.9,31.18,North,351,0.0,0.0,63,0.00,,,0.00,WeatherDisplay:10.36,2013-01-10 04:43:00,
2013-01-09 22:48:00,37.6,26.1,31.18,North,351,0.0,0.0,63,0.00,,,0.00,WeatherDisplay:10.36,2013-01-10 04:48:00,
2013-01-09 22:53:00,37.4,25.9,31.18,NNE,28,0.0,0.0,63,0.00,,,0.00,WeatherDisplay:10.36,2013-01-10 04:53:00,
2013-01-09 22:58:00,37.6,26.1,31.18,NNE,29,0.0,0.0,63,0.00,,,0.00,WeatherDisplay:10.36,2013-01-10 04:58:00,
2013-01-09 23:00:00,37.6,26.1,31.18,NNE,29,0.0,0.0,63,0.00,,,0.00,WeatherDisplay:10.36,2013-01-10 05:00:00,
2013-01-09 23:01:00,37.6,26.1,30.41,NNE,29,0.0,0.0,63,0.00,,,0.00,WeatherDisplay:10.36,2013-01-10 05:01:00,
2013-01-09 23:02:00,37.6,26.1,30.41,NNE,29,0.0,0.0,63,0.00,,,0.00,WeatherDisplay:10.36,2013-01-10 05:02:00,
2013-01-09 23:07:00,37.8,26.3,30.41,NNE,33,3.5,0.0,63,0.00,,,0.00,WeatherDisplay:10.36,2013-01-10 05:07:00,
2013-01-09 23:12:00,37.9,26.1,30.41,NNE,32,0.0,0.0,62,0.00,,,0.00,WeatherDisplay:10.36,2013-01-10 05:12:00,
2013-01-09 23:17:00,37.8,25.9,30.41,NNE,30,0.0,0.0,62,0.00,,,0.00,WeatherDisplay:10.36,2013-01-10 05:17:00,
2013-01-09 23:22:00,37.8,25.9,30.41,NNE,31,0.0,0.0,62,0.00,,,0.00,WeatherDisplay:10.36,2013-01-10 05:22:00,
2013-01-09 23:27:00,37.9,26.1,30.41,NNE,27,0.0,0.0,62,0.00,,,0.00,WeatherDisplay:10.36,2013-01-10 05:27:00,
2013-01-09 23:32:00,37.9,25.7,30.41,NNE,27,0.0,0.0,61,0.00,,,0.00,WeatherDisplay:10.36,2013-01-10 05:32:00,
2013-01-09 23:38:00,38.1,25.8,30.41,NNE,32,0.0,0.0,61,0.00,,,0.00,WeatherDisplay:10.36,2013-01-10 05:38:00,
2013-01-09 23:43:00,38.1,25.8,30.41,NNE,30,0.0,0.0,61,0.00,,,0.00,WeatherDisplay:10.36,2013-01-10 05:43:00,
2013-01-09 23:45:00,38.3,25.6,30.41,NNE,28,0.0,0.0,60,0.00,,,0.00,WeatherDisplay:10.36,2013-01-10 05:45:00,
2013-01-09 23:50:00,38.5,25.4,30.41,NNE,28,0.0,0.0,59,0.00,,,0.00,WeatherDisplay:10.36,2013-01-10 05:50:00,
2013-01-09 23:55:00,38.8,25.3,30.41,NNE,30,3.6,0.0,58,0.00,,,0.00,WeatherDisplay:10.36,2013-01-10 05:55:00,